Location: Go?cza
(50.3372°N, 19.9313°E)
Time: 22:34:28
(UTC+00:00)

CZ-2C R/B - Pass Details

Date: 06 August 2024
Orbit: 665 x 777 km, 98.4° (Epoch: 16 September)

Event Time Altitude Azimuth Distance (km) Brightness Sun altitude
Rises 02:05:20 0° 17° (NNE) 3,248 6.9 -10.1°
Reaches altitude 10° 02:07:41 10° 22° (NNE) 2,326 6.1 -9.8°
Maximum altitude 02:12:45 56° 101° (E) 925 3.2 -9.2°
Drops below altitude 10° 02:17:49 10° 179° (S) 2,324 4.6 -8.6°
Sets 02:20:10 0° 184° (S) 3,244 5.3 -8.3°
